Satellite: STUDSAT
Catalog number: 36801
Epoch time:      10245.34327518
Element set:      58
Inclination:      098.1445 deg
RA of node:       305.1887 deg
Eccentricity:    0.0015036
Arg of perigee:   112.0518 deg
Mean anomaly:     248.2292 deg
Mean motion:   14.79617248 rev/day
Decay rate:       7.36e-06 rev/day^2
Epoch rev:             772
Checksum:              291

/EX
SB KEPS @ AMSAT  $ORB10245.W
Orbital Elements  10245.WEATHER

HR AMSAT ORBITAL ELEMENTS FOR WEATHER SATELLITES
FROM WA5QGD FORT WORTH,TX September 2, 2010
Send Subscribe/unsubscribe to KEPS at http://www.amsat.org/mailman/listinfo/keps
BID: ORB10245.W
TO ALL RADIO AMATEURS BT

Satellite: NOAA-10
Catalog number: 16969
Epoch time:      10244.69803470
Element set:    0187
Inclination:      098.6524 deg
RA of node:       272.9323 deg
Eccentricity:    0.0012429
Arg of perigee:   352.6337 deg
Mean anomaly:     007.4678 deg
Mean motion:   14.27425212 rev/day
Decay rate:       -3.4e-07 rev/day^2
Epoch rev:           24649
Checksum:              311

Satellite: NOAA-11
Catalog number: 19531
Epoch time:      10244.75325764
Element set:    0199
Inclination:      098.7676 deg
RA of node:       332.4705 deg
Eccentricity:    0.0010878
Arg of perigee:   292.8038 deg
Mean anomaly:     067.1991 deg
Mean motion:   14.14932896 rev/day
Decay rate:      -2.21e-06 rev/day^2
Epoch rev:           13196
Checksum:              329

Satellite: NOAA-12
Catalog number: 21263
Epoch time:      10244.85092336
Element set:    0692
Inclination:      098.7655 deg
RA of node:       258.0014 deg
Eccentricity:    0.0011807
Arg of perigee:   307.9852 deg
Mean anomaly:     052.0254 deg
Mean motion:   14.25651254 rev/day
Decay rate:        2.6e-07 rev/day^2
Epoch rev:           00332
Checksum:              272

Satellite: MET-3/5
Catalog number: 21655
Epoch time:      10245.51650402
Element set:     903
Inclination:      082.5545 deg
RA of node:       253.9954 deg
Eccentricity:    0.0014073
Arg of perigee:   150.4030 deg
Mean anomaly:     209.7893 deg
Mean motion:   13.17026543 rev/day
Decay rate:        5.1e-07 rev/day^2
Epoch rev:           91585
Checksum:              283

Satellite: MET-2/21
Catalog number: 22782
Epoch time:      10244.36537479
Element set:    0874
Inclination:      082.5492 deg
RA of node:       192.0037 deg
Eccentricity:    0.0022089
Arg of perigee:   184.8114 deg
Mean anomaly:     175.2830 deg
Mean motion:   13.83647313 rev/day
Decay rate:        5.9e-07 rev/day^2
Epoch rev:           85861
Checksum:              318

Satellite: OKEAN-4
Catalog number: 23317
Epoch time:      10245.72102413
Element set:     328
Inclination:      082.5393 deg
RA of node:       281.4933 deg
Eccentricity:    0.0021915
Arg of perigee:   351.4289 deg
Mean anomaly:     008.6548 deg
Mean motion:   14.82852783 rev/day
Decay rate:       -1.1e-07 rev/day^2
Epoch rev:           85794
Checksum:              301

Satellite: NOAA-14
Catalog number: 23455
Epoch time:      10244.85812241
Element set:    0181
Inclination:      098.8750 deg
RA of node:       325.0537 deg
Eccentricity:    0.0009854
Arg of perigee:   023.1921 deg
Mean anomaly:     336.9687 deg
Mean motion:   14.13792610 rev/day
Decay rate:       -2.1e-07 rev/day^2
Epoch rev:           80833
Checksum:              295

Satellite: NOAA-15
Catalog number: 25338
Epoch time:      10244.76722536
Element set:    0505
Inclination:      098.6263 deg
RA of node:       230.3451 deg
Eccentricity:    0.0010121
Arg of perigee:   207.4051 deg
Mean anomaly:     152.6579 deg
Mean motion:   14.24852511 rev/day
Decay rate:       1.64e-06 rev/day^2
Epoch rev:           63965
Checksum:              280

Satellite: RESURS
Catalog number: 25394
Epoch time:      10244.78502660
Element set:    0595
Inclination:      098.3047 deg
RA of node:       258.6945 deg
Eccentricity:    0.0002072
Arg of perigee:   029.6230 deg
Mean anomaly:     330.5063 deg
Mean motion:   14.24208236 rev/day
Decay rate:       -3.7e-07 rev/day^2
Epoch rev:           63125
Checksum:              280

Satellite: FENGYUN1
Catalog number: 25730
Epoch time:      10245.39602625
Element set:     126
Inclination:      098.7897 deg
RA of node:       208.3520 deg
Eccentricity:    0.0023353
Arg of perigee:   047.5005 deg
Mean anomaly:     312.8136 deg
Mean motion:   14.08264660 rev/day
Decay rate:       3.40e-06 rev/day^2
Epoch rev:           58255
Checksum:              279

Satellite: OKEAN-0
Catalog number: 25860
Epoch time:      10245.41457374
Element set:      88
Inclination:      097.8413 deg
RA of node:       215.5237 deg
Eccentricity:    0.0001149
Arg of perigee:   107.8110 deg
Mean anomaly:     252.3224 deg
Mean motion:   14.73658668 rev/day
Decay rate:        4.0e-07 rev/day^2
Epoch rev:           59827
Checksum:              294

Satellite: NOAA-16
Catalog number: 26536
Epoch time:      10244.79584017
Element set:    0983
Inclination:      099.1697 deg
RA of node:       264.0666 deg
Eccentricity:    0.0011291
Arg of perigee:   120.1586 deg
Mean anomaly:     240.0680 deg
Mean motion:   14.12573838 rev/day
Decay rate:      -1.64e-06 rev/day^2
Epoch rev:           51264
Checksum:              311

Satellite: NOAA-17
Catalog number: 27453
Epoch time:      10244.71580496
Element set:    0976
Inclination:      098.4232 deg
RA of node:       292.0515 deg
Eccentricity:    0.0010752
Arg of perigee:   274.3776 deg
Mean anomaly:     085.6164 deg
Mean motion:   14.24186167 rev/day
Decay rate:        7.4e-07 rev/day^2
Epoch rev:           42559
Checksum:              322

Satellite: NOAA-18
Catalog number: 28654
Epoch time:      10244.72213423
Element set:    0464
Inclination:      098.9548 deg
RA of node:       190.7840 deg
Eccentricity:    0.0013887
Arg of perigee:   194.1071 deg
Mean anomaly:     165.9715 deg
Mean motion:   14.11382793 rev/day
Decay rate:      -1.54e-06 rev/day^2
Epoch rev:           27223
Checksum:              315

Satellite: NOAA-19
Catalog number: 33591
Epoch time:      10244.72689061
Element set:    0660
Inclination:      098.7916 deg
RA of node:       185.2339 deg
Eccentricity:    0.0015126
Arg of perigee:   073.2412 deg
Mean anomaly:     287.0420 deg
Mean motion:   14.11080342 rev/day
Decay rate:        5.1e-07 rev/day^2
Epoch rev:           08070
Checksum:              277

/EX
SB KEPS @ AMSAT  $ORB10245.M
Orbital Elements  10245.MISC

HR AMSAT ORBITAL ELEMENTS FOR MANNED AND MISCELLANEOUS SATELLITES
FROM WA5QGD FORT WORTH,TX September 2, 2010
Send Subscribe/unsubscribe to KEPS at http://www.amsat.org/mailman/listinfo/keps
BID: ORB10245.M
TO ALL RADIO AMATEURS BT

Satellite: HUBBLE
Catalog number: 20580
Epoch time:      10245.04443848
Element set:     638
Inclination:      028.4723 deg
RA of node:       098.0892 deg
Eccentricity:    0.0003379
Arg of perigee:   294.3708 deg
Mean anomaly:     065.6530 deg
Mean motion:   15.01026337 rev/day
Decay rate:       4.31e-06 rev/day^2
Epoch rev:           91631
Checksum:              286

Satellite: ISS
Catalog number: 25544
Epoch time:      10246.02087851
Element set:     821
Inclination:      051.6457 deg
RA of node:       192.3593 deg
Eccentricity:    0.0008009
Arg of perigee:   327.7100 deg
Mean anomaly:     125.2858 deg
Mean motion:   15.71426498 rev/day
Decay rate:      8.494e-05 rev/day^2
Epoch rev:           67571
Checksum:              309

Satellite: CO-58
Catalog number: 28895
Epoch time:      10244.67561886
Element set:    0671
Inclination:      098.0024 deg
RA of node:       126.5741 deg
Eccentricity:    0.0018842
Arg of perigee:   048.3198 deg
Mean anomaly:     311.9613 deg
Mean motion:   14.59926648 rev/day
Decay rate:        9.1e-07 rev/day^2
Epoch rev:           25814
Checksum:              341

Satellite: FALCON
Catalog number: 30776
Epoch time:      10244.56926002
Element set:    0918
Inclination:      035.4348 deg
RA of node:       300.5227 deg
Eccentricity:    0.0000319
Arg of perigee:   053.3965 deg
Mean anomaly:     306.6781 deg
Mean motion:   15.03789867 rev/day
Decay rate:       5.97e-06 rev/day^2
Epoch rev:           19156
Checksum:              309

Satellite: MAST
Catalog number: 31126
Epoch time:      10245.59288253
Element set:     953
Inclination:      097.9302 deg
RA of node:       283.5771 deg
Eccentricity:    0.0094689
Arg of perigee:   346.2653 deg
Mean anomaly:     013.5974 deg
Mean motion:   14.53614353 rev/day
Decay rate:      -1.28e-06 rev/day^2
Epoch rev:           17930
Checksum:              317

Satellite: CAPE1
Catalog number: 31130
Epoch time:      10244.54797620
Element set:    0974
Inclination:      097.9347 deg
RA of node:       279.8472 deg
Eccentricity:    0.0102995
Arg of perigee:   358.1766 deg
Mean anomaly:     001.9029 deg
Mean motion:   14.52217242 rev/day
Decay rate:       4.57e-06 rev/day^2
Epoch rev:           17874
Checksum:              323

Satellite: COMPASS
Catalog number: 32787
Epoch time:      10245.68314439
Element set:     765
Inclination:      097.8872 deg
RA of node:       309.3504 deg
Eccentricity:    0.0016561
Arg of perigee:   036.1623 deg
Mean anomaly:     324.0725 deg
Mean motion:   14.81953732 rev/day
Decay rate:       5.70e-06 rev/day^2
Epoch rev:           12697
Checksum:              312

Satellite: AAUSAT2
Catalog number: 32788
Epoch time:      10245.67862129
Element set:     757
Inclination:      097.8875 deg
RA of node:       309.4901 deg
Eccentricity:    0.0016313
Arg of perigee:   038.1451 deg
Mean anomaly:     322.0949 deg
Mean motion:   14.82100559 rev/day
Decay rate:       5.96e-06 rev/day^2
Epoch rev:           12698
Checksum:              327

